Flag for Canada Weather past 2 weeks in Stephenville, Newfoundland and Labrador, Canada

Now
43 °F

Scattered clouds.


Feels Like: 32 °F
Forecast: 32 / 43 °F
Wind: 29 mph from Northeast

Location: Stephenville


UV Index: 3 (Moderate)

Visibility: 15 mi


Pressure: 29.65 "Hg

Humidity: 49%

Dew point: 25 °F

Location of StephenvilleLocation

Historic Weather in Stephenville

°F

Stephenville temperature yesterday

Maximum temperature yesterday: 50 °F (at 4:30 PM)
Minimum temperature yesterday: 39 °F (at 4:30 AM)
Average temperature yesterday: 43 °F

Past Weeks' High & Low Weather Summary

 TemperatureHumidityPressure
High55 °F (Apr 15, 5:30 PM)100% (Apr 9, 1:30 PM)30.82 "Hg (Apr 9, 1:30 PM)
Low19 °F (Apr 14, 12:30 AM)44% (Apr 14, 8:30 AM)29.27 "Hg (Apr 9, 1:30 PM)
Average35 °F74%30.05 "Hg
* Reported Apr 9 1:30 PM — Apr 24 1:30 PM, Stephenville, Weather by CustomWeather, © 2014

Note: Actual official high and low records may vary slightly from our data, if they occured in-between our weather recording intervals... More about our weather records

Advertising

Historic Weather Conditions — Data for Previous 24 hours

 ConditionsComfort  
Time TempWeatherWind HumidityBarometerVisibility
1:30 PM
Apr 24
43 °FScattered clouds.35 mph49%29.66 "Hg15 mi
12:30 PM43 °FScattered clouds.29 mph46%29.68 "Hg15 mi
11:30 AM41 °FScattered clouds.25 mph49%29.69 "Hg15 mi
10:30 AM39 °FPartly sunny.17 mph52%29.70 "Hg15 mi
9:30 AM39 °FBroken clouds.17 mph56%29.69 "Hg15 mi
8:30 AM36 °FPartly sunny.23 mph60%29.70 "Hg15 mi
7:30 AM36 °FPartly sunny.17 mph52%29.70 "Hg15 mi
6:30 AM36 °FPassing clouds.20 mph56%29.69 "Hg15 mi
5:30 AM36 °FPassing clouds.12 mph56%29.68 "Hg15 mi
4:30 AM36 °FPassing clouds.17 mph60%29.69 "Hg15 mi
3:30 AM37 °FPassing clouds.14 mph60%29.69 "Hg15 mi
2:30 AM37 °FPassing clouds.14 mph65%29.70 "Hg15 mi
1:30 AM39 °FPassing clouds.14 mph65%29.71 "Hg15 mi
12:30 AM39 °FPassing clouds.15 mph70%29.71 "Hg15 mi
11:30 PM
Apr 23
39 °FPassing clouds.17 mph75%29.71 "Hg15 mi
10:30 PM41 °FMostly cloudy.17 mph70%29.71 "Hg15 mi
9:30 PM41 °FMostly cloudy.17 mph70%29.70 "Hg15 mi
8:30 PM43 °FMore clouds than sun.20 mph66%29.70 "Hg15 mi
7:30 PM45 °FOvercast.15 mph61%29.70 "Hg15 mi
6:30 PM48 °FBroken clouds.15 mph58%29.70 "Hg15 mi
5:30 PM48 °FBroken clouds.17 mph58%29.69 "Hg15 mi
4:30 PM50 °FBroken clouds.16 mph54%29.70 "Hg15 mi
3:30 PM48 °FBroken clouds.13 mph62%29.71 "Hg15 mi
Weather by CustomWeather, © 2014

See weather overview